timestamp,wind_dir_avg,wind_spd_avg,wind_spd_max_dir,wind_spd_gust,battery_voltage,lat,long
2023-11-01 00:04:01+00:00,305.0,7.11,303.0,7.96,12.41,47.59359,-54.27349
2023-11-01 00:14:01+00:00,307.0,7.07,311.0,8.23,12.41,47.59359,-54.27349
2023-11-01 00:24:01+00:00,303.0,7.35,304.0,8.12,12.41,47.59359,-54.27349
2023-11-01 00:34:01+00:00,300.0,7.44,298.0,8.02,12.41,47.59359,-54.27349
2023-11-01 00:44:01+00:00,302.0,7.2,302.0,8.37,12.41,47.59359,-54.27349
2023-11-01 00:54:01+00:00,302.0,7.44,307.0,8.45,12.41,47.59359,-54.27349
2023-11-01 01:04:01+00:00,311.0,8.76,314.0,9.71,12.41,47.59359,-54.27349
2023-11-01 01:14:00+00:00,307.0,7.7,311.0,8.58,12.41,47.59359,-54.27349
2023-11-01 01:24:00+00:00,312.0,7.12,312.0,8.13,12.41,47.59359,-54.27349
2023-11-01 01:34:00+00:00,307.0,6.3,308.0,7.72,12.41,47.59359,-54.27349
2023-11-01 01:44:00+00:00,294.0,5.42,297.0,6.65,12.41,47.59359,-54.27349
2023-11-01 01:54:00+00:00,294.0,4.81,282.0,6.19,12.41,47.59359,-54.27349
2023-11-01 02:04:00+00:00,293.0,4.5,280.0,5.33,12.41,47.59359,-54.27349
2023-11-01 02:14:00+00:00,309.0,5.18,307.0,6.17,12.33,47.59359,-54.27349
2023-11-01 02:24:00+00:00,297.0,5.64,301.0,6.88,12.33,47.59359,-54.27349
2023-11-01 02:34:00+00:00,288.0,6.14,289.0,7.12,12.33,47.59359,-54.27349
2023-11-01 02:44:00+00:00,295.0,5.58,288.0,6.53,12.33,47.59359,-54.27349
2023-11-01 02:54:00+00:00,301.0,5.69,301.0,6.55,12.33,47.59359,-54.27349
2023-11-01 03:04:00+00:00,285.0,4.45,299.0,5.32,12.33,47.59359,-54.27349
2023-11-01 03:14:01+00:00,288.0,5.01,295.0,6.45,12.33,47.59359,-54.27349
2023-11-01 03:24:01+00:00,289.0,4.31,283.0,5.1,12.33,47.59359,-54.27349
2023-11-01 03:34:01+00:00,296.0,4.78,300.0,6.04,12.33,47.59359,-54.27349
2023-11-01 03:44:01+00:00,280.0,4.39,282.0,5.24,12.33,47.59359,-54.27349
2023-11-01 03:54:01+00:00,291.0,3.28,283.0,4.41,12.33,47.59359,-54.27349
2023-11-01 04:04:01+00:00,286.0,2.32,273.0,3.06,12.33,47.59359,-54.27349
2023-11-01 04:14:01+00:00,266.0,3.37,264.0,4.04,12.33,47.59359,-54.27349
2023-11-01 04:24:01+00:00,258.0,4.14,252.0,4.74,12.33,47.59359,-54.27349
2023-11-01 04:34:01+00:00,239.0,4.98,237.0,5.62,12.33,47.59359,-54.27349
2023-11-01 04:44:01+00:00,241.0,5.06,243.0,5.92,12.33,47.59359,-54.27349
2023-11-01 04:54:01+00:00,252.0,5.58,249.0,6.42,12.33,47.59359,-54.27349
2023-11-01 05:04:01+00:00,260.0,5.24,263.0,6.07,12.33,47.59359,-54.27349
2023-11-01 05:14:00+00:00,247.0,5.47,239.0,6.41,12.33,47.59359,-54.27349
2023-11-01 05:24:00+00:00,249.0,5.52,251.0,6.58,12.33,47.59359,-54.27349
2023-11-01 05:34:00+00:00,250.0,5.19,244.0,5.89,12.33,47.59359,-54.27349
2023-11-01 05:44:00+00:00,251.0,3.99,253.0,5.18,12.33,47.59359,-54.27349
2023-11-01 05:54:00+00:00,236.0,4.31,244.0,5.51,12.33,47.59359,-54.27349
2023-11-01 06:04:00+00:00,263.0,4.13,263.0,4.72,12.33,47.59359,-54.27349
2023-11-01 06:14:00+00:00,228.0,3.19,228.0,4.09,12.25,47.59359,-54.27349
2023-11-01 06:24:00+00:00,227.0,2.52,239.0,3.2,12.25,47.59359,-54.27349
2023-11-01 06:34:00+00:00,268.0,3.16,267.0,3.75,12.25,47.59359,-54.27349
2023-11-01 06:44:00+00:00,264.0,3.96,264.0,4.68,12.25,47.59359,-54.27349
2023-11-01 06:54:00+00:00,241.0,3.51,244.0,4.55,12.25,47.59359,-54.27349
2023-11-01 07:04:00+00:00,222.0,3.54,230.0,4.33,12.25,47.59359,-54.27349
2023-11-01 07:14:00+00:00,214.0,4.41,215.0,5.06,12.25,47.59359,-54.27349
2023-11-01 07:24:00+00:00,225.0,3.9,227.0,4.51,12.25,47.59359,-54.27349
2023-11-01 07:34:00+00:00,231.0,4.01,236.0,4.77,12.25,47.59359,-54.27349
2023-11-01 07:44:00+00:00,227.0,5.01,231.0,6.04,12.25,47.59359,-54.27349
2023-11-01 07:54:00+00:00,233.0,4.49,244.0,6.4,12.25,47.59359,-54.27349
2023-11-01 08:04:00+00:00,228.0,4.04,245.0,6.63,12.25,47.59359,-54.27349
2023-11-01 08:14:00+00:00,230.0,4.25,234.0,4.92,12.25,47.59359,-54.27349
2023-11-01 08:24:00+00:00,240.0,5.16,243.0,5.78,12.25,47.59359,-54.27349
2023-11-01 08:34:00+00:00,236.0,4.74,238.0,5.38,12.25,47.59359,-54.27349
2023-11-01 08:44:00+00:00,230.0,4.42,233.0,5.44,12.25,47.59359,-54.27349
2023-11-01 08:54:00+00:00,243.0,4.32,244.0,5.33,12.25,47.59359,-54.27349
2023-11-01 09:04:00+00:00,250.0,4.14,257.0,6.42,12.25,47.59359,-54.27349
2023-11-01 09:14:00+00:00,273.0,3.59,270.0,6.37,12.25,47.59359,-54.27349
2023-11-01 09:24:00+00:00,279.0,3.5,274.0,3.97,12.25,47.59359,-54.27349
2023-11-01 09:34:00+00:00,289.0,3.71,290.0,4.79,12.25,47.59359,-54.27349
2023-11-01 09:44:00+00:00,270.0,3.28,266.0,6.58,12.25,47.59359,-54.27349
2023-11-01 09:54:00+00:00,267.0,3.46,268.0,4.25,12.25,47.59359,-54.27349
2023-11-01 10:04:00+00:00,251.0,4.5,259.0,5.17,12.25,47.59359,-54.27349
2023-11-01 10:14:00+00:00,293.0,4.52,289.0,5.57,12.17,47.59359,-54.27349
2023-11-01 10:24:00+00:00,278.0,4.56,278.0,5.67,12.17,47.59359,-54.27349
2023-11-01 10:34:00+00:00,273.0,4.61,274.0,5.18,12.17,47.59359,-54.27349
2023-11-01 10:44:00+00:00,272.0,4.14,278.0,5.33,12.17,47.59359,-54.27349
2023-11-01 10:54:00+00:00,259.0,3.57,263.0,6.42,12.17,47.59359,-54.27349
2023-11-01 11:04:00+00:00,255.0,3.57,263.0,4.78,12.17,47.59359,-54.27349
2023-11-01 11:14:00+00:00,239.0,4.51,256.0,5.53,12.41,47.59359,-54.27349
2023-11-01 11:24:00+00:00,266.0,4.33,269.0,5.1,12.41,47.59359,-54.27349
2023-11-01 11:34:00+00:00,241.0,3.73,250.0,5.57,12.41,47.59359,-54.27349
2023-11-01 11:44:00+00:00,259.0,3.83,258.0,4.99,12.41,47.59359,-54.27349
2023-11-01 11:54:00+00:00,260.0,3.58,260.0,5.72,12.41,47.59359,-54.27349
2023-11-01 12:04:00+00:00,253.0,3.39,257.0,5.63,12.41,47.59359,-54.27349
2023-11-01 12:14:00+00:00,240.0,4.41,249.0,6.17,13.29,47.59359,-54.27349
2023-11-01 12:24:00+00:00,257.0,3.96,259.0,5.29,13.29,47.59359,-54.27349
2023-11-01 12:34:00+00:00,260.0,4.72,266.0,6.33,13.29,47.59359,-54.27349
2023-11-01 12:44:00+00:00,266.0,4.48,265.0,6.18,13.29,47.59359,-54.27349
2023-11-01 12:54:00+00:00,269.0,4.25,268.0,6.33,13.29,47.59359,-54.27349
2023-11-01 13:04:00+00:00,268.0,5.27,267.0,6.47,13.29,47.59359,-54.27349
2023-11-01 13:14:00+00:00,258.0,4.69,262.0,6.69,13.37,47.59359,-54.27349
2023-11-01 13:24:00+00:00,263.0,4.44,267.0,6.32,13.37,47.59359,-54.27349
2023-11-01 13:34:00+00:00,263.0,5.8,264.0,6.42,13.37,47.59359,-54.27349
2023-11-01 13:44:00+00:00,253.0,4.65,259.0,6.56,13.37,47.59359,-54.27349
2023-11-01 13:54:00+00:00,247.0,5.0,258.0,6.72,13.37,47.59359,-54.27349
2023-11-01 14:04:00+00:00,259.0,5.56,260.0,6.58,13.37,47.59359,-54.27349
2023-11-01 14:14:00+00:00,266.0,5.09,267.0,6.41,13.76,47.59359,-54.27349
2023-11-01 14:24:00+00:00,261.0,4.53,265.0,5.91,13.76,47.59359,-54.27349
2023-11-01 14:34:00+00:00,261.0,4.85,264.0,6.29,13.76,47.59359,-54.27349
2023-11-01 14:44:00+00:00,248.0,1.64,263.0,4.65,13.76,47.59359,-54.27349
2023-11-01 14:54:00+00:00,190.0,1.31,201.0,1.88,13.76,47.59359,-54.27349
2023-11-01 15:04:00+00:00,155.0,0.83,160.0,1.14,13.76,47.59359,-54.27349
2023-11-01 15:14:01+00:00,188.0,0.42,179.0,0.72,13.76,47.59359,-54.27349
2023-11-01 15:24:01+00:00,51.0,1.0,50.0,1.28,13.76,47.59359,-54.27349
2023-11-01 15:34:01+00:00,142.0,0.32,158.0,0.63,13.76,47.59359,-54.27349
2023-11-01 15:44:01+00:00,0.0,0.08,179.0,0.63,13.76,47.59359,-54.27349
2023-11-01 15:54:01+00:00,188.0,3.33,196.0,4.41,13.76,47.59359,-54.27349
2023-11-01 16:04:01+00:00,180.0,2.86,178.0,3.55,13.76,47.59359,-54.27349
2023-11-01 16:14:00+00:00,192.0,4.56,209.0,5.5,13.53,47.59359,-54.27349
2023-11-01 16:24:00+00:00,181.0,3.14,186.0,3.72,13.53,47.59359,-54.27349
2023-11-01 16:34:00+00:00,178.0,3.68,180.0,4.32,13.53,47.59359,-54.27349
2023-11-01 16:44:00+00:00,203.0,4.78,215.0,5.6,13.53,47.59359,-54.27349
2023-11-01 16:54:00+00:00,195.0,4.5,198.0,5.13,13.53,47.59359,-54.27349
2023-11-01 17:04:00+00:00,204.0,5.1,216.0,6.59,13.53,47.59359,-54.27349
2023-11-01 17:14:00+00:00,205.0,5.15,213.0,6.18,13.21,47.59359,-54.27349
2023-11-01 17:24:00+00:00,208.0,6.77,217.0,7.8,13.21,47.59359,-54.27349
2023-11-01 17:34:00+00:00,206.0,7.16,214.0,8.47,13.21,47.59359,-54.27349
2023-11-01 17:44:00+00:00,198.0,5.64,185.0,7.35,13.21,47.59359,-54.27349
2023-11-01 17:54:00+00:00,210.0,6.63,220.0,8.47,13.21,47.59359,-54.27349
2023-11-01 18:04:00+00:00,169.0,5.59,173.0,6.59,13.21,47.59359,-54.27349
2023-11-01 18:14:00+00:00,174.0,5.62,176.0,6.76,12.81,47.59359,-54.27349
2023-11-01 18:24:00+00:00,176.0,6.41,172.0,7.48,12.81,47.59359,-54.27349
2023-11-01 18:34:00+00:00,209.0,7.97,208.0,9.63,12.81,47.59359,-54.27349
2023-11-01 18:44:00+00:00,218.0,6.16,214.0,7.5,12.81,47.59359,-54.27349
2023-11-01 18:54:00+00:00,218.0,5.28,229.0,6.69,12.81,47.59359,-54.27349
2023-11-01 19:04:00+00:00,215.0,6.5,224.0,7.67,12.81,47.59359,-54.27349
2023-11-01 19:14:00+00:00,214.0,5.86,221.0,6.61,12.57,47.59359,-54.27349
2023-11-01 19:24:00+00:00,220.0,6.6,221.0,7.79,12.57,47.59359,-54.27349
2023-11-01 19:34:00+00:00,185.0,3.82,183.0,4.55,12.57,47.59359,-54.27349
2023-11-01 19:44:00+00:00,188.0,3.58,190.0,4.27,12.57,47.59359,-54.27349
2023-11-01 19:54:00+00:00,177.0,3.0,180.0,3.6,12.57,47.59359,-54.27349
2023-11-01 20:04:00+00:00,149.0,2.85,134.0,3.64,12.57,47.59359,-54.27349
2023-11-01 20:14:01+00:00,175.0,4.63,178.0,5.8,12.49,47.59359,-54.27349
2023-11-01 20:24:01+00:00,160.0,7.31,160.0,8.53,12.49,47.59359,-54.27349
2023-11-01 20:34:01+00:00,166.0,6.52,168.0,7.33,12.49,47.59359,-54.27349
2023-11-01 20:44:01+00:00,159.0,6.51,167.0,7.15,12.49,47.59359,-54.27349
2023-11-01 20:54:01+00:00,164.0,7.18,162.0,8.48,12.49,47.59359,-54.27349
2023-11-01 21:04:01+00:00,158.0,7.92,151.0,8.65,12.49,47.59359,-54.27349
2023-11-01 21:14:01+00:00,167.0,6.38,173.0,7.5,12.41,47.59359,-54.27349
2023-11-01 21:24:01+00:00,152.0,6.35,154.0,7.41,12.41,47.59359,-54.27349
2023-11-01 21:34:01+00:00,153.0,8.0,151.0,8.8,12.41,47.59359,-54.27349
2023-11-01 21:44:01+00:00,148.0,7.95,148.0,8.79,12.41,47.59359,-54.27349
2023-11-01 21:54:01+00:00,145.0,5.98,155.0,6.82,12.41,47.59359,-54.27349
2023-11-01 22:04:01+00:00,153.0,6.95,159.0,8.04,12.41,47.59359,-54.27349
2023-11-01 22:14:01+00:00,151.0,8.3,149.0,9.12,12.41,47.59359,-54.27349
2023-11-01 22:24:01+00:00,148.0,8.77,153.0,9.59,12.41,47.59359,-54.27349
2023-11-01 22:34:01+00:00,143.0,8.33,143.0,10.28,12.41,47.59359,-54.27349
2023-11-01 22:44:01+00:00,138.0,7.97,140.0,9.12,12.41,47.59359,-54.27349
2023-11-01 22:54:01+00:00,143.0,7.4,146.0,8.69,12.41,47.59359,-54.27349
2023-11-01 23:04:01+00:00,138.0,7.76,137.0,8.85,12.41,47.59359,-54.27349
2023-11-01 23:14:01+00:00,144.0,6.77,142.0,7.61,12.41,47.59359,-54.27349
2023-11-01 23:24:01+00:00,144.0,7.95,145.0,9.16,12.41,47.59359,-54.27349
2023-11-01 23:34:01+00:00,138.0,7.53,141.0,8.86,12.41,47.59359,-54.27349
2023-11-01 23:44:01+00:00,139.0,8.74,134.0,10.19,12.41,47.59359,-54.27349
2023-11-01 23:54:01+00:00,145.0,10.02,145.0,11.01,12.41,47.59359,-54.27349
